When you browse on this site, cookies collect data to enhance your experience and personalize the content and advertising you see.
Visit our Privacy Policy to learn more. By continuing to use the site, you agree to this use of cookies and data.
  • In Hungary
  • List of Countries
  • For 7 days
  • Water Temperature
  • Weather Map
  • News
  • Weather Widgets
  • user-avatar
    Login

    Hourly Weather Austrum

    Today, 15 October, Tuesday

    Time Temperature Precipitation Wind Pressure Humidity
    00:00 +7°C° 0.1 mm 3 mps 744 mmHg 89%
    01:00 +5°C° 0.1 mm 3 mps 745 mmHg 90%
    02:00 +5°C° 0.1 mm 3 mps 745 mmHg 91%
    03:00 +5°C° 0.1 mm 3 mps 745 mmHg 92%
    04:00 +5°C° 0 mm 3 mps 745 mmHg 94%
    05:00 +5°C° 0 mm 3 mps 744 mmHg 94%
    06:00 +5°C° 0 mm 3 mps 744 mmHg 93%
    07:00 +5°C° 0 mm 3 mps 744 mmHg 93%
    08:00 +5°C° 0.6 mm 3 mps 743 mmHg 92%
    09:00 +5°C° 0.6 mm 3 mps 742 mmHg 91%
    10:00 +5°C° 0 mm 3 mps 742 mmHg 91%
    11:00 +5°C° 1.2 mm 3 mps 741 mmHg 92%
    12:00 +6°C° 1.2 mm 2 mps 740 mmHg 93%
    13:00 +6°C° 1.2 mm 2 mps 739 mmHg 95%
    14:00 +6°C° 0.2 mm 2 mps 739 mmHg 94%
    15:00 +6°C° 0.2 mm 2 mps 739 mmHg 94%
    16:00 +7°C° 0.2 mm 1 mps 739 mmHg 93%
    17:00 +6°C° 0.1 mm 2 mps 739 mmHg 93%
    18:00 +6°C° 0.1 mm 2 mps 740 mmHg 93%
    19:00 +6°C° 0.1 mm 2 mps 740 mmHg 93%
    20:00 +5°C° 0.1 mm 3 mps 741 mmHg 92%
    21:00 +5°C° 0.1 mm 3 mps 741 mmHg 91%
    22:00 +5°C° 0.1 mm 3 mps 742 mmHg 89%
    23:00 +4°C° 0 mm 3 mps 742 mmHg 90%

    Tomorrow, 16 October, Wednesday

    Time Temperature Precipitation Wind Pressure Humidity
    00:00 +4°C° 0 mm 3 mps 743 mmHg 90%
    01:00 +3°C° 0 mm 3 mps 743 mmHg 90%
    02:00 +3°C° 0 mm 3 mps 744 mmHg 92%
    03:00 +3°C° 0 mm 3 mps 745 mmHg 93%
    04:00 +2°C° 0 mm 3 mps 746 mmHg 94%
    05:00 +2°C° 0.1 mm 3 mps 746 mmHg 94%
    06:00 +2°C° 0.1 mm 3 mps 746 mmHg 94%
    07:00 +1°C° 0.1 mm 4 mps 747 mmHg 94%
    08:00 +1°C° 0.1 mm 4 mps 747 mmHg 92%
    09:00 +1°C° 0.1 mm 5 mps 748 mmHg 91%
    10:00 +1°C° 0.1 mm 5 mps 748 mmHg 89%
    11:00 +1°C° 0.1 mm 5 mps 749 mmHg 84%
    12:00 +1°C° 0.1 mm 5 mps 749 mmHg 79%
    13:00 +2°C° 0.1 mm 5 mps 750 mmHg 74%
    14:00 +1°C° 0 mm 5 mps 750 mmHg 74%
    15:00 +1°C° 0 mm 5 mps 751 mmHg 75%
    16:00 +1°C° 0 mm 5 mps 752 mmHg 76%
    17:00 +1°C° 0 mm 5 mps 752 mmHg 77%
    18:00 0°C° 0 mm 4 mps 753 mmHg 79%
    19:00 0°C° 0 mm 4 mps 753 mmHg 81%
    20:00 0°C° 0 mm 4 mps 754 mmHg 81%
    21:00 -1°C° 0 mm 4 mps 754 mmHg 82%
    22:00 0°C° 0 mm 3 mps 754 mmHg 83%
    23:00 0°C° 0 mm 3 mps 755 mmHg 84%

    Day after tomorrow, 17 October, Thursday

    Time Temperature Precipitation Wind Pressure Humidity
    00:00 0°C° 0 mm 3 mps 755 mmHg 85%
    01:00 0°C° 0 mm 3 mps 755 mmHg 86%
    02:00 0°C° 0 mm 3 mps 756 mmHg 84%
    03:00 +1°C° 0 mm 2 mps 756 mmHg 81%
    04:00 +1°C° 0 mm 2 mps 756 mmHg 78%
    05:00 +1°C° 0 mm 2 mps 756 mmHg 80%
    06:00 -1°C° 0 mm 2 mps 757 mmHg 83%
    07:00 -1°C° 0 mm 2 mps 757 mmHg 85%
    08:00 +1°C° 0 mm 2 mps 757 mmHg 82%
    09:00 +1°C° 0 mm 2 mps 757 mmHg 78%
    10:00 +2°C° 0 mm 2 mps 757 mmHg 75%
    11:00 +1°C° 0 mm 3 mps 756 mmHg 74%
    12:00 +1°C° 0 mm 3 mps 756 mmHg 73%
    13:00 +2°C° 0 mm 3 mps 756 mmHg 72%
    14:00 +1°C° 0 mm 3 mps 756 mmHg 79%
    15:00 0°C° 0 mm 4 mps 755 mmHg 86%
    16:00 0°C° 0 mm 4 mps 755 mmHg 94%
    17:00 0°C° 0.3 mm 4 mps 754 mmHg 94%
    18:00 0°C° 0.3 mm 5 mps 754 mmHg 94%
    19:00 0°C° 0.3 mm 5 mps 753 mmHg 94%
    20:00 0°C° 0 mm 5 mps 752 mmHg 90%
    21:00 +1°C° 0 mm 5 mps 752 mmHg 86%
    22:00 +1°C° 0 mm 6 mps 751 mmHg 83%
    23:00 +1°C° 0.2 mm 6 mps 750 mmHg 81%

    18 October, Friday

    Time Temperature Precipitation Wind Pressure Humidity
    00:00 +2°C° 0.2 mm 6 mps 749 mmHg 79%
    01:00 +2°C° 0.2 mm 6 mps 749 mmHg 78%
    02:00 +2°C° 1.7 mm 6 mps 748 mmHg 81%
    03:00 +2°C° 1.7 mm 5 mps 748 mmHg 84%
    04:00 +2°C° 1.7 mm 5 mps 747 mmHg 88%
    05:00 +2°C° 2 mm 5 mps 747 mmHg 89%
    06:00 +2°C° 2 mm 5 mps 747 mmHg 91%
    07:00 +2°C° 2 mm 5 mps 746 mmHg 93%
    08:00 +2°C° 1.3 mm 5 mps 746 mmHg 93%
    09:00 +3°C° 1.3 mm 4 mps 746 mmHg 94%
    10:00 +3°C° 1.3 mm 4 mps 746 mmHg 94%
    11:00 +3°C° 0.3 mm 4 mps 747 mmHg 94%
    12:00 +4°C° 0.3 mm 3 mps 747 mmHg 94%
    13:00 +4°C° 0.3 mm 3 mps 747 mmHg 93%
    14:00 +4°C° 0.1 mm 3 mps 748 mmHg 89%
    15:00 +4°C° 0.1 mm 3 mps 748 mmHg 84%
    16:00 +3°C° 0.1 mm 3 mps 749 mmHg 79%
    17:00 +3°C° 0 mm 3 mps 749 mmHg 80%
    18:00 +2°C° 0 mm 3 mps 750 mmHg 81%
    19:00 +2°C° 0 mm 3 mps 751 mmHg 82%
    20:00 +1°C° 0 mm 3 mps 751 mmHg 83%
    21:00 0°C° 0 mm 3 mps 752 mmHg 84%
    22:00 0°C° 0 mm 3 mps 752 mmHg 85%
    23:00 0°C° 0 mm 3 mps 753 mmHg 85%

    19 October, Saturday

    Time Temperature Precipitation Wind Pressure Humidity
    00:00 -2°C° 0 mm 4 mps 753 mmHg 84%
    01:00 -2°C° 0 mm 4 mps 753 mmHg 84%
    02:00 -2°C° 0 mm 4 mps 754 mmHg 83%
    03:00 -3°C° 0 mm 4 mps 754 mmHg 83%
    04:00 -3°C° 0 mm 4 mps 755 mmHg 82%
    05:00 -2°C° 0 mm 3 mps 755 mmHg 82%
    06:00 -2°C° 0 mm 3 mps 755 mmHg 82%
    07:00 -2°C° 0 mm 2 mps 756 mmHg 82%
    08:00 -1°C° 0 mm 2 mps 756 mmHg 77%
    09:00 +1°C° 0 mm 2 mps 757 mmHg 73%
    10:00 +3°C° 0 mm 1 mps 757 mmHg 69%
    11:00 +3°C° 0 mm 1 mps 757 mmHg 66%
    12:00 +4°C° 0 mm 1 mps 757 mmHg 63%
    13:00 +5°C° 0 mm 1 mps 757 mmHg 60%
    14:00 +5°C° 0 mm 1 mps 757 mmHg 63%
    15:00 +4°C° 0 mm 1 mps 757 mmHg 66%
    16:00 +4°C° 0 mm 1 mps 757 mmHg 68%
    17:00 +3°C° 0 mm 1 mps 758 mmHg 71%
    18:00 +2°C° 0 mm 1 mps 758 mmHg 73%
    19:00 +1°C° 0 mm 1 mps 758 mmHg 76%
    20:00 +1°C° 0 mm 1 mps 758 mmHg 76%
    21:00 -1°C° 0 mm 2 mps 758 mmHg 75%
    22:00 -1°C° 0 mm 2 mps 759 mmHg 75%
    23:00 0°C° 0 mm 1 mps 759 mmHg 75%

    20 October, Sunday

    Time Temperature Precipitation Wind Pressure Humidity
    00:00 0°C° 0 mm 1 mps 759 mmHg 76%
    01:00 0°C° 0 mm 1 mps 759 mmHg 76%
    02:00 0°C° 0 mm 1 mps 759 mmHg 76%
    03:00 0°C° 0 mm 1 mps 759 mmHg 75%
    04:00 0°C° 0 mm 1 mps 759 mmHg 75%
    05:00 0°C° 0 mm 1 mps 759 mmHg 74%
    06:00 0°C° 0 mm 1 mps 759 mmHg 72%
    07:00 0°C° 0 mm 1 mps 759 mmHg 71%
    08:00 +1°C° 0 mm 1 mps 759 mmHg 67%
    09:00 +2°C° 0 mm 1 mps 759 mmHg 63%
    10:00 +2°C° 0 mm 1 mps 759 mmHg 59%
    11:00 +3°C° 0 mm 1 mps 759 mmHg 58%
    12:00 +3°C° 0 mm 2 mps 759 mmHg 58%
    13:00 +3°C° 0 mm 2 mps 759 mmHg 58%
    14:00 +4°C° 0 mm 1 mps 759 mmHg 62%
    15:00 +4°C° 0 mm 1 mps 759 mmHg 67%
    16:00 +3°C° 0 mm 1 mps 759 mmHg 71%
    17:00 +3°C° 0 mm 1 mps 759 mmHg 75%
    18:00 +2°C° 0 mm 1 mps 759 mmHg 79%
    19:00 +1°C° 0 mm 0 mps 759 mmHg 83%
    20:00 +1°C° 0 mm 0 mps 760 mmHg 83%
    21:00 +2°C° 0 mm 1 mps 760 mmHg 84%
    22:00 +2°C° 0 mm 1 mps 760 mmHg 84%
    23:00 +1°C° 0 mm 1 mps 760 mmHg 85%
    Show more